DB0OHA-10 Weather Reports


Display with metric or nautical units.
time (UTC)temp
F
wind
direction
speed
MPH
gust
MPH
rain 1hr
in
rain 24hr
in
rain mn
in
humidity
%
barometer
mb
20260506164851 55 287 2.0 9.0 0.00 2.12 1.73 1 1004.6
20260506164510 55 287 2.0 9.0 0.00 2.12 1.73 1 1004.6
20260506163010 55 261 4.0 11.0 0.00 2.12 1.73 1 1004.6
20260506162010 57 255 3.0 10.0 0.00 2.12 1.73 1 1004.3
20260506161510 57 255 3.0 10.0 0.00 2.12 1.73 1 1004.3
20260506160010 57 281 2.0 7.0 0.00 2.12 1.73 1 1004.3
20260506154510 57 299 3.0 8.0 0.00 2.13 1.73 1 1004.3
20260506153010 58 275 5.0 10.0 0.00 2.13 1.73 1 1004.4
20260506151510 58 284 4.0 8.0 0.00 2.13 1.73 1 1004.4
20260506150010 59 297 3.0 9.0 0.00 2.13 1.73 1 1004.4
20260506144510 60 308 2.0 7.0 0.00 2.13 1.73 1 1004.3
20260506143010 60 274 2.0 4.0 0.00 2.13 1.73 1 1004.2
20260506141510 59 265 0.0 0.0 0.00 2.13 1.73 1 1004.4
20260506140010 59 265 0.0 3.0 0.00 2.13 1.73 1 1004.4
20260506134510 58 265 0.0 0.0 0.01 2.13 1.73 1 1004.5
20260506133010 58 264 1.0 6.0 0.08 2.13 1.73 1 1004.6
20260506131735 59 41 0.0 0.0 0.17 2.13 1.73 1 1004.5
20260506131510 59 41 0.0 0.0 0.17 2.13 1.73 1 1004.5
20260506130010 57 41 0.0 0.0 0.23 2.13 1.73 1 1004.4
20260506124510 56 41 0.0 0.0 0.23 2.12 1.72 1 1004.4
20260506123010 55 41 0.0 0.0 0.23 2.05 1.65 1 1004.5
20260506121510 55 41 0.0 5.0 0.20 1.96 1.56 1 1004.2
20260506120010 55 41 2.0 4.0 0.24 1.90 1.50 1 1004.2
20260506114510 56 40 0.0 5.0 0.24 1.89 1.49 1 1004.2
20260506113010 55 40 0.0 0.0 0.17 1.82 1.42 1 1004.1
20260506111510 55 40 0.0 0.0 0.11 1.76 1.36 1 1004.1
20260506110010 56 40 0.0 0.0 0.01 1.66 1.26 1 1004.1
20260506104510 56 36 0.0 0.0 0.00 1.65 1.25 1 1004.1
20260506103010 56 36 2.0 6.0 0.00 1.65 1.25 1 1004.1
20260506101510 56 20 1.0 0.0 0.00 1.65 1.25 1 1004.0
20260506100010 56 13 0.0 0.0 0.00 1.65 1.25 1 1004.0
20260506094510 55 13 0.0 0.0 0.00 1.65 1.25 1 1004.0
20260506093010 55 13 0.0 0.0 0.01 1.65 1.25 1 1004.0
20260506091510 55 13 0.0 0.0 0.02 1.65 1.25 1 1003.8
20260506090010 53 13 0.0 0.0 0.03 1.65 1.25 1 1004.0
20260506084516 53 13 0.0 0.0 0.03 1.65 1.25 1 1004.0
20260506084510 53 13 0.0 0.0 0.03 1.65 1.25 1 1004.0
20260506083016 53 13 0.0 0.0 0.03 1.64 1.24 1 1003.9
20260506083010 53 13 0.0 0.0 0.03 1.64 1.24 1 1003.9
20260506081510 53 13 0.0 0.0 0.04 1.63 1.23 1 1003.7
20260506073010 52 13 0.0 4.0 0.03 1.61 1.21 1 1003.6
20260506071515 52 13 0.0 0.0 0.01 1.59 1.19 1 1003.6
20260506071510 52 13 0.0 0.0 0.01 1.59 1.19 1 1003.6
20260506061510 52 13 0.0 0.0 0.01 1.58 1.18 1 1003.6
20260506050428 51 13 0.0 0.0 0.01 1.57 1.17 1 1003.4
20260506044511 51 13 0.0 0.0 0.01 1.57 1.17 1 1003.6
20260506043351 51 13 0.0 0.0 0.03 1.57 1.17 1 1003.6
20260506043011 51 13 0.0 0.0 0.03 1.57 1.17 1 1003.6
20260506041516 52 13 0.0 0.0 0.04 1.56 1.16 1 1003.6
20260506041511 52 13 0.0 0.0 0.04 1.56 1.16 1 1003.6
20260506040011 52 13 0.0 0.0 0.10 1.56 1.16 1 1003.5
20260506034511 52 13 0.0 0.0 0.15 1.57 1.16 1 1003.5
20260506033434 52 13 0.0 0.0 0.18 1.55 1.14 1 1003.5
20260506033011 52 13 0.0 0.0 0.18 1.55 1.14 1 1003.5
20260506031516 52 13 0.0 0.0 0.22 1.53 1.12 1 1003.7
20260506031511 52 13 0.0 0.0 0.22 1.53 1.12 1 1003.7
20260506030123 52 13 0.0 2.0 0.22 1.47 1.06 1 1003.9
20260506030018 52 13 0.0 2.0 0.22 1.47 1.06 1 1003.9
20260506030011 52 13 0.0 2.0 0.22 1.47 1.06 1 1003.9
20260506024511 52 13 0.0 0.0 0.21 1.43 1.01 1 1004.1
20260506023350 52 13 0.0 0.0 0.27 1.38 0.96 1 1004.3
20260506023011 52 13 0.0 0.0 0.27 1.38 0.96 1 1004.3
20260506021518 52 13 0.0 0.0 0.29 1.32 0.90 1 1004.3
20260506021511 52 13 0.0 0.0 0.29 1.32 0.90 1 1004.3
20260506020011 53 13 0.0 0.0 0.27 1.26 0.84 1 1004.3
20260506014511 53 13 0.0 0.0 0.28 1.22 0.80 1 1004.4
20260506013011 53 13 0.0 0.0 0.20 1.11 0.69 1 1004.3
20260506011511 53 13 0.0 0.0 0.17 1.03 0.61 1 1004.5
20260506010011 53 13 0.0 0.0 0.18 0.99 0.57 1 1004.4
20260506004511 53 13 0.0 0.0 0.16 0.94 0.52 1 1004.5
20260506003011 53 13 0.0 0.0 0.17 0.91 0.49 1 1004.7
20260506001511 53 13 0.0 0.0 0.16 0.86 0.44 1 1004.8
20260506000016 54 13 0.0 0.0 0.21 0.81 0.39 1 1005.0
20260506000011 54 13 0.0 0.0 0.21 0.81 0.39 1 1005.0
20260505234517 54 13 0.0 0.0 0.28 0.78 0.36 1 1005.1
20260505234511 54 13 0.0 0.0 0.28 0.78 0.36 1 1005.1
20260505233011 54 13 0.0 0.0 0.29 0.74 0.32 1 1005.2
20260505231511 54 13 0.0 0.0 0.27 0.70 0.28 1 1005.3
20260505230011 54 13 0.0 0.0 0.18 0.60 0.18 1 1005.4
20260505224516 54 13 0.0 0.0 0.10 0.50 0.08 1 1005.4
20260505224511 54 13 0.0 0.0 0.10 0.50 0.08 1 1005.4
20260505223011 54 13 0.0 0.0 0.07 0.45 0.03 1 1005.5
20260505221511 54 13 0.0 0.0 0.07 0.43 0.01 1 1005.5
20260505220011 54 13 0.0 0.0 0.08 0.42 0.00 1 1005.5
20260505214511 54 13 0.0 0.0 0.08 0.40 0.40 1 1005.7
20260505213016 54 13 0.0 0.0 0.10 0.38 0.38 1 1005.7
20260505213011 54 13 0.0 0.0 0.10 0.38 0.38 1 1005.7
20260505211511 54 13 0.0 0.0 0.11 0.36 0.36 1 1005.8
20260505210011 54 13 0.0 0.0 0.12 0.34 0.34 1 1005.7
20260505204511 54 13 0.0 0.0 0.14 0.32 0.32 1 1005.8
20260505203011 54 13 0.0 5.0 0.11 0.28 0.28 1 1005.7
20260505201511 54 13 0.0 0.0 0.09 0.25 0.25 1 1005.8
20260505200011 55 13 0.0 0.0 0.06 0.22 0.22 1 1005.8
20260505194511 55 13 0.0 0.0 0.03 0.24 0.18 1 1005.9
20260505193011 55 13 0.0 0.0 0.03 0.23 0.17 1 1005.8
20260505191511 55 13 0.0 0.0 0.03 0.22 0.16 1 1006.0
20260505190011 55 13 0.0 0.0 0.04 0.22 0.16 1 1005.9
20260505184511 55 13 1.0 4.0 0.04 0.34 0.15 1 1005.7
20260505183011 56 14 0.0 0.0 0.04 0.33 0.14 1 1005.8
20260505181511 56 355 1.0 9.0 0.05 0.32 0.13 1 1005.6
20260505180011 56 26 0.0 4.0 0.06 0.31 0.12 1 1005.8
20260505174511 56 34 1.0 9.0 0.08 0.32 0.11 1 1005.6
20260505173019 57 5 1.0 9.0 0.08 0.31 0.10 1 1005.6
20260505173011 57 5 1.0 9.0 0.08 0.31 0.10 1 1005.6
20260505171511 57 53 0.0 0.0 0.06 0.29 0.08 1 1005.9
20260505170011 58 53 1.0 5.0 0.04 0.27 0.06 1 1006.0